Other Public Products
Issued by NWS Charleston, SC

Current Version | Previous Version | Graphics & Text | Print | Product List | Glossary On
Versions: 1 2 3 4 5 6 7 8 9 10 11 12 13 14 15 16 17 18 19 20 21 22 23 24 25 26 27 28 29 30 31 32 33 34 35 36 37 38 39 40 41 42 43 44 45 46 47 48 49 50
538 FPUS82 KCHS 172012 OPUCHS TEST...KCHS/KSAV Gateway Observations...TEST National Weather Service Charleston SC 400 PM EDT TUE OCT 17 2017 NOTE: "fair" indicates few or no clouds below 12,000 feet with no significant weather and/or obstructions to visibility. SCZ050-WAZ558-NCZ071-TXZ119-213-PAZ071-DCZ001-FLZ074-172-MI076- NYZ176-178-MAZ016-IL014-TNZ027-NJZ106-GAZ044-MD014-172100- ...Gateway Observations for Charleston International... CITY SKY/WX TMP DP RH WIND PRES REMARKS Chas Airport MOSUNNY 69 43 38 NE16 30.22F Seattle PTSUNNY 57 49 74 SW18G25 30.05F Charlotte MOSUNNY 67 40 37 NE6 30.29F Dallas DFW SUNNY 74 39 28 SW3 30.19F Dallas Love SUNNY 74 39 28 CALM 30.20F Philladelphia SUNNY 60 32 34 S7 30.29F Wash National MOSUNNY 63 32 31 NE5 30.31S Baltimore MOSUNNY 61 32 33 CALM 30.30S Miami PTSUNNY 86 70 58 VRB6 29.95S HX 90 Detroit MOSUNNY 69 41 36 SW23 30.15F Newark MOSUNNY 60 30 32 VRB3 30.26F Laguardia SUNNY 61 29 29 VRB5 30.26F J F K MOSUNNY 58 35 42 SW9 30.28F Boston Logan SUNNY 55 33 43 S6 30.22F Ft. Lauderdale PTSUNNY 85 74 69 E10 29.95S HX 92 Chicago O`Hare MOSUNNY 70 38 31 SW18 30.12F Chicago Midway MOSUNNY 70 40 33 SW18G25 30.15F Houston Bush SUNNY 77 43 29 VRB6 30.17F Houston Hobby SUNNY 78 42 27 NE8 30.16F Nashville MOSUNNY 69 35 28 NE3 30.28F Atlanta SUNNY 68 40 35 VRB7 30.25F $$ GAZ044-118-TXZ119-213-NCZ071-DCZ001-MDZ014-506-PAZ021-071-NJZ106- NYZ176-178-MAZ106-OHZ011-021-055-MIZ076-KYZ091-ILZ014-INZ047- MNZ060-ONZ431-172100- ...Gateway Observations for Savannah International... CITY SKY/WX TMP DP RH WIND PRES REMARKS Savannah Arpt CLOUDY 72 43 35 NE14 30.21S Atlanta SUNNY 68 40 35 VRB7 30.25F Charlotte MOSUNNY 67 40 37 NE6 30.29F Dallas DFW SUNNY 74 39 28 SW3 30.19F Houston Bush SUNNY 77 43 29 VRB6 30.17F Wash National MOSUNNY 63 32 31 NE5 30.31S Wash Dulles MOSUNNY 61 32 33 CALM 30.30F Baltimore MOSUNNY 61 32 33 CALM 30.30S Philadelphia SUNNY 60 32 34 S7 30.29F Newark MOSUNNY 60 30 32 VRB3 30.26F Laguardia SUNNY 61 29 29 VRB5 30.26F J F K MOSUNNY 58 35 42 SW9 30.28F Boston SUNNY 55 33 43 S6 30.22F Pittsburg MOSUNNY 62 37 39 SW8 30.26F Akron MOSUNNY 64 37 36 W16 30.25S Cleveland MOSUNNY 67 40 37 SW14G23 30.23F Cincinnati MOSUNNY 65 41 41 S9 30.27F Columbus SUNNY 65 40 39 W9 30.26F Detroit MOSUNNY 69 41 36 SW23 30.15F Chicago O`Hare MOSUNNY 70 38 31 SW18 30.12F Minneapolis MOSUNNY 71 45 39 SW6 29.95F Indianapolis MOSUNNY 66 39 37 SW10 30.25R Toronto Canada MOSUNNY 66 39 37 SW17G30 30.03F $$

USA.gov is the U.S. government's official web portal to all federal, state and local government web resources and services.